Regional Weather Roundup
Issued by NWS

Home | Current Version | Previous Version | Graphics & Text | Print | Product List | Glossary On
Versions: 1 2 3 4 5 6 7 8 9 10 11 12 13 14 15 16 17 18 19 20 21 22 23 24 25 26 27 28 29 30 31 32 33 34 35 36 37 38 39 40 41 42 43 44 45 46 47 48 49 50
000
ASUS43 KOAX 311202
RWRNE

WEATHER ROUNDUP FOR NEBRASKA
NATIONAL WEATHER SERVICE OMAHA NE
700 AM CDT MON AUG 31 2015

NOTES: SATELLITE DATA IS BEING USED TO AUGMENT CLOUD COVER ABOVE
       12000 FEET.
       "FAIR" INDICATES FEW OR NO CLOUDS BELOW 12,000 FEET WITH NO
       SIGNIFICANT WEATHER AND/OR OBSTRUCTIONS TO VISIBILITY.

  * THESE STATIONS DO NOT REPORT WEATHER SUCH AS RAIN...SNOW OR FOG.

NEZ001>004-019>022-054>056-311300-
NEBRASKA PANHANDLE

CITY           SKY/WX    TMP DP  RH WIND       PRES   REMARKS
SCOTTSBLUFF    MOCLDY    71  52  50 W12       29.96R
6HR MIN TEMP:  66; 6HR MAX TEMP:  80; 6HR PCP: TRACE;

ALLIANCE       MOCLDY    60  50  69 S5        29.92S
6HR MIN TEMP:  60; 6HR MAX TEMP:  78;

CHADRON        CLOUDY    78  50  37 W16       29.88F
6HR MIN TEMP:  67; 6HR MAX TEMP:  81; 6HR PCP: TRACE;

KIMBALL        LGT RAIN  69  49  49 NW12      30.00S
SIDNEY         MOCLDY    60  49  66 NW8       29.98R
6HR MIN TEMP:  57; 6HR MAX TEMP:  70;

$$

NEZ057>060-069>072-079>082-311300-
SOUTHWEST NEBRASKA

CITY           SKY/WX    TMP DP  RH WIND       PRES   REMARKS
NORTH PLATTE   CLEAR     55  53  93 N3        29.91F
6HR MIN TEMP:  55; 6HR MAX TEMP:  68;

IMPERIAL       CLEAR     57  49  74 CALM      29.92S
6HR MIN TEMP:  55; 6HR MAX TEMP:  72;

LEXINGTON      CLEAR     62  60  94 SE5       29.92S
MCCOOK         CLEAR     59  55  87 E3        29.91S
6HR MIN TEMP:  58; 6HR MAX TEMP:  68;

$$

NEZ005>010-023>029-035>040-094-311300-
NORTH CENTRAL NEBRASKA

CITY           SKY/WX    TMP DP  RH WIND       PRES   REMARKS
VALENTINE      PTCLDY    64  49  57 SW5       29.84R
6HR MIN TEMP:  64; 6HR MAX TEMP:  72;

AINSWORTH      CLEAR     64  58  80 S14       29.86S
BROKEN BOW     CLEAR     60  58  92 SE3       29.92S FOG
6HR MIN TEMP:  60; 6HR MAX TEMP:  67;

ORD            MOCLDY    62  61  96 SE3       29.90F FOG
6HR MIN TEMP:  59; 6HR MAX TEMP:  66;

$$

NEZ041-046>049-061>064-073>077-083>087-311300-
SOUTH CENTRAL NEBRASKA

CITY           SKY/WX    TMP DP  RH WIND       PRES   REMARKS
GRAND ISLAND   FAIR      62  61  96 S6        29.94S FOG
6HR MIN TEMP:  61; 6HR MAX TEMP:  67;

AURORA         CLEAR     62  62 100 S5        29.94F FOG
HASTINGS       CLEAR     62  61  96 S3        29.94S FOG
6HR MIN TEMP:  62; 6HR MAX TEMP:  66;

KEARNEY *      CLOUDY    55  52  88 SE7       29.94S VSB<1/4
YORK           MOCLDY    61  61 100 S6        29.95S FOG
$$

NEZ011>018-030>034-042>045-311300-
NORTHEAST NEBRASKA

CITY           SKY/WX    TMP DP  RH WIND       PRES   REMARKS
NORFOLK        CLEAR     63  62  97 SE5       29.92S FOG
6HR MIN TEMP:  63; 6HR MAX TEMP:  68;

ALBION         FOG       61  59  94 SE5       29.93S VSB 1/2
BLAIR          FOG       64  63  94 S5        29.95R VSB<1/4
COLUMBUS *     CLEAR     63  55  77 S5        29.95R
FREMONT        FOG       65  64  96 SE6       29.94S VSB 1/4
TEKAMAH        FOG       61  61 100 S3        29.94R VSB 1/4
6HR MIN TEMP:  60; 6HR MAX TEMP:  62;

$$

NEZ050>053-065>068-078-088>093-311300-
SOUTHEAST NEBRASKA

CITY           SKY/WX    TMP DP  RH WIND       PRES   REMARKS
LINCOLN        CLEAR     63  63 100 S3        29.95S FOG
6HR MIN TEMP:  62; 6HR MAX TEMP:  67;

OMAHA EPPLEY   CLEAR     65  65 100 S6        29.95R FOG
6HR MIN TEMP:  65; 6HR MAX TEMP:  68;

BEATRICE       CLEAR     64  63  98 SE3       29.96R FOG
FALLS CITY     MOCLDY    65  64  97 CALM      29.96R FOG
6HR MIN TEMP:  63; 6HR MAX TEMP:  68;

NEBRASKA CITY  FOG       62  62  99 S5        29.97R VSB<1/4
PLATTSMOUTH    FOG       66  65  96 SE7       29.96S VSB 1/4
$$

NEZ044-045-051>053-067-311300-
OMAHA AREA

CITY           SKY/WX    TMP DP  RH WIND       PRES   REMARKS
OMAHA EPPLEY   CLEAR     65  65 100 S6        29.95R FOG
6HR MIN TEMP:  65; 6HR MAX TEMP:  68;

BLAIR          FOG       64  63  94 S5        29.95R VSB<1/4
FREMONT        FOG       65  64  96 SE6       29.94S VSB 1/4
OFFUTT AFB     FOG       62  62 100 SE5       29.94S VSB 0
PLATTSMOUTH    FOG       66  65  96 SE7       29.96S VSB 1/4
WAHOO          FOG       62  61  97 CALM      29.95R VSB<1/4
$$




USA.gov is the U.S. government's official web portal to all federal, state and local government web resources and services.